WZZ1D LQSA-EDDS

Flight info

Callsign WZZ1D
Flight time N/A
Altitude 36000
Route BOSNA DCT TIVNU DCT PODET DCT ABTAN DCT NEMAL DCT TITIG L173 MAH/N0411F240 L173 DODIL T127 TEKSI TEKSI5A
Aircraft A320/M-SDE3FGHIRWY/LB1

Departure

Time 2026-04-28 17:25
Airport Sarajevo International Airport (LQSA)

Arrival

Time N/A
Airport Stuttgart Airport (EDDS)
Time Latitude Longitude Altitude Speed Heading
2026-04-28 17:08 43.82547 18.33627 1682 ft 0 kts 22°
2026-04-28 17:19 43.82541 18.33624 1687 ft 4 kts 25°
2026-04-28 17:19 43.82518 18.33604 1687 ft 4 kts 44°
2026-04-28 17:19 43.82502 18.33576 1682 ft 4 kts 59°
2026-04-28 17:19 43.82496 18.33563 1688 ft 1 kts 60°
2026-04-28 17:22 43.82490 18.33588 1686 ft 4 kts 109°
2026-04-28 17:22 43.82456 18.33641 1683 ft 11 kts 130°
2026-04-28 17:22 43.82403 18.33772 1688 ft 20 kts 118°
2026-04-28 17:23 43.82232 18.34228 1698 ft 32 kts 118°
2026-04-28 17:23 43.82128 18.34505 1703 ft 27 kts 117°
2026-04-28 17:23 43.81989 18.34617 1707 ft 27 kts 193°
2026-04-28 17:23 43.81965 18.34463 1702 ft 14 kts 298°
2026-04-28 17:24 43.81972 18.34446 1701 ft 0 kts 298°
2026-04-28 17:24 43.82063 18.34204 1695 ft 65 kts 297°
2026-04-28 17:25 43.82364 18.33403 1684 ft 120 kts 297°
2026-04-28 17:25 43.83316 18.30873 2276 ft 160 kts 295°
2026-04-28 17:25 43.83664 18.29939 2634 ft 163 kts 296°
2026-04-28 17:26 43.84191 18.28504 3072 ft 175 kts 296°
2026-04-28 17:26 43.84767 18.26928 3269 ft 196 kts 296°
2026-04-28 17:26 43.85436 18.25199 3573 ft 210 kts 305°
2026-04-28 17:26 43.86571 18.23799 3796 ft 230 kts 326°
2026-04-28 17:27 43.87941 18.22432 4016 ft 254 kts 323°
2026-04-28 17:27 43.89405 18.20894 4447 ft 271 kts 322°
2026-04-28 17:27 43.90899 18.19303 5341 ft 268 kts 321°
2026-04-28 17:27 43.92383 18.17721 6230 ft 271 kts 322°
2026-04-28 17:28 43.93887 18.16125 7036 ft 275 kts 320°
2026-04-28 17:28 43.96964 18.12879 8637 ft 281 kts 321°
2026-04-28 17:28 43.98528 18.11234 9447 ft 284 kts 320°
2026-04-28 17:29 44.00107 18.09574 10197 ft 287 kts 320°
2026-04-28 17:29 44.01753 18.07835 10464 ft 309 kts 320°
2026-04-28 17:29 44.03525 18.05963 10604 ft 331 kts 320°
2026-04-28 17:30 44.07319 18.01959 11614 ft 348 kts 321°
2026-04-28 17:30 44.11197 17.97868 12981 ft 352 kts 320°
2026-04-28 17:30 44.13155 17.95797 13653 ft 355 kts 321°
2026-04-28 17:31 44.15124 17.93714 14282 ft 357 kts 321°
2026-04-28 17:31 44.19107 17.89492 15437 ft 362 kts 321°
2026-04-28 17:32 44.23136 17.85216 16575 ft 366 kts 321°
2026-04-28 17:32 44.25163 17.83065 17180 ft 368 kts 321°
2026-04-28 17:32 44.27207 17.80892 17776 ft 370 kts 321°
2026-04-28 17:32 44.29257 17.78707 18339 ft 372 kts 321°
2026-04-28 17:33 44.31319 17.76509 18870 ft 374 kts 320°
2026-04-28 17:33 44.33396 17.74295 19372 ft 376 kts 320°
2026-04-28 17:33 44.35478 17.72071 19909 ft 378 kts 320°
2026-04-28 17:33 44.36866 17.70588 20275 ft 379 kts 320°
2026-04-28 17:34 44.39669 17.67581 20979 ft 381 kts 320°
2026-04-28 17:34 44.41771 17.65319 21489 ft 382 kts 320°
2026-04-28 17:34 44.43879 17.63050 21994 ft 383 kts 320°
2026-04-28 17:34 44.45999 17.60770 22480 ft 385 kts 319°
2026-04-28 17:35 44.48126 17.58485 22941 ft 387 kts 319°
2026-04-28 17:35 44.50248 17.56243 23410 ft 388 kts 324°
2026-04-28 17:35 44.52457 17.54059 23771 ft 391 kts 325°
2026-04-28 17:35 44.54738 17.51889 23693 ft 404 kts 326°
2026-04-28 17:36 44.57117 17.49721 23955 ft 405 kts 327°
2026-04-28 17:36 44.59452 17.47548 24228 ft 403 kts 320°
2026-04-28 17:36 44.61585 17.45089 24804 ft 396 kts 316°
2026-04-28 17:36 44.63627 17.42474 25293 ft 395 kts 314°
2026-04-28 17:37 44.65657 17.39874 25720 ft 396 kts 315°
2026-04-28 17:37 44.67746 17.37325 26102 ft 398 kts 317°
2026-04-28 17:37 44.69891 17.34857 26474 ft 400 kts 319°
2026-04-28 17:37 44.72090 17.32437 26854 ft 402 kts 319°
2026-04-28 17:38 44.74317 17.30047 27221 ft 404 kts 320°
2026-04-28 17:38 44.76563 17.27656 27558 ft 406 kts 320°
2026-04-28 17:38 44.78817 17.25250 27914 ft 408 kts 320°
2026-04-28 17:38 44.81077 17.22815 28264 ft 410 kts 319°
2026-04-28 17:39 44.83334 17.20361 28689 ft 409 kts 319°
2026-04-28 17:39 44.85575 17.17911 29188 ft 407 kts 319°
2026-04-28 17:39 44.90019 17.13045 30294 ft 401 kts 319°
2026-04-28 17:40 44.92215 17.10635 30744 ft 399 kts 319°
2026-04-28 17:40 44.94402 17.08232 31184 ft 398 kts 319°
2026-04-28 17:40 44.96579 17.05835 31624 ft 396 kts 319°
2026-04-28 17:40 44.98729 17.03421 32047 ft 394 kts 317°
2026-04-28 17:41 45.00847 17.00987 32458 ft 392 kts 317°
2026-04-28 17:41 45.02949 16.98538 32865 ft 391 kts 317°
2026-04-28 17:41 45.05039 16.96094 33276 ft 389 kts 317°
2026-04-28 17:41 45.07120 16.93662 33710 ft 388 kts 317°
2026-04-28 17:42 45.09197 16.91237 34127 ft 386 kts 317°
2026-04-28 17:42 45.10569 16.89640 34392 ft 385 kts 317°
2026-04-28 17:42 45.13335 16.86423 34857 ft 384 kts 317°
2026-04-28 17:42 45.15396 16.84027 35172 ft 383 kts 317°
2026-04-28 17:43 45.17456 16.81633 35463 ft 383 kts 317°
2026-04-28 17:43 45.19515 16.79239 35745 ft 383 kts 317°
2026-04-28 17:43 45.21569 16.76842 35988 ft 383 kts 317°
2026-04-28 17:44 45.25717 16.71978 36078 ft 392 kts 317°
2026-04-28 17:44 45.29951 16.67017 36081 ft 396 kts 317°
2026-04-28 17:45 45.34203 16.62028 36083 ft 396 kts 317°
2026-04-28 17:45 45.38453 16.57050 36086 ft 395 kts 317°
2026-04-28 17:46 45.42687 16.52071 36084 ft 395 kts 317°
2026-04-28 17:46 45.46913 16.47074 36085 ft 395 kts 317°
2026-04-28 17:47 45.51145 16.42063 36083 ft 396 kts 317°
2026-04-28 17:47 45.55384 16.37048 36093 ft 396 kts 317°
2026-04-28 17:48 45.59585 16.32055 36099 ft 396 kts 317°
2026-04-28 17:48 45.63821 16.27011 36101 ft 396 kts 317°
2026-04-28 17:49 45.68058 16.21962 36101 ft 397 kts 316°
2026-04-28 17:49 45.72295 16.16899 36091 ft 397 kts 316°
2026-04-28 17:50 45.76528 16.11831 36095 ft 397 kts 316°
2026-04-28 17:50 45.80766 16.06751 36096 ft 397 kts 316°
2026-04-28 17:51 45.85002 16.01663 36116 ft 397 kts 316°
2026-04-28 17:51 45.89223 15.96573 36116 ft 396 kts 316°
2026-04-28 17:52 45.93441 15.91472 36105 ft 396 kts 316°
2026-04-28 17:52 45.99771 15.83824 36106 ft 396 kts 316°
2026-04-28 17:53 46.03992 15.78712 36108 ft 396 kts 316°
2026-04-28 17:53 46.08203 15.73582 36106 ft 396 kts 316°
2026-04-28 17:54 46.12409 15.68460 36128 ft 396 kts 316°
2026-04-28 17:54 46.16607 15.63335 36123 ft 395 kts 316°
2026-04-28 17:55 46.20833 15.58265 36117 ft 395 kts 317°
2026-04-28 17:55 46.25113 15.53279 36119 ft 395 kts 317°
2026-04-28 17:56 46.29385 15.48280 36121 ft 395 kts 317°
2026-04-28 17:56 46.33646 15.43253 36145 ft 395 kts 317°
2026-04-28 17:57 46.37899 15.38213 36130 ft 395 kts 317°
2026-04-28 17:57 46.42148 15.33175 36125 ft 394 kts 317°
2026-04-28 17:58 46.46391 15.28139 36125 ft 395 kts 317°
2026-04-28 17:58 46.50634 15.23081 36121 ft 395 kts 317°
2026-04-28 17:59 46.54875 15.18015 36121 ft 394 kts 317°
2026-04-28 17:59 46.59108 15.12958 36143 ft 394 kts 317°
2026-04-28 18:00 46.63337 15.07885 36124 ft 394 kts 316°
2026-04-28 18:00 46.67558 15.02811 36117 ft 394 kts 316°
2026-04-28 18:01 46.71779 14.97733 36114 ft 394 kts 316°
2026-04-28 18:01 46.75797 14.92885 36106 ft 394 kts 316°
2026-04-28 18:02 46.80014 14.87787 36104 ft 394 kts 316°
2026-04-28 18:02 46.84238 14.82670 36125 ft 397 kts 316°
2026-04-28 18:03 46.88468 14.77524 36118 ft 395 kts 316°
2026-04-28 18:03 46.92695 14.72402 36113 ft 394 kts 316°
2026-04-28 18:04 46.96901 14.67289 36110 ft 393 kts 316°
2026-04-28 18:04 47.01085 14.62176 36108 ft 392 kts 316°
2026-04-28 18:05 47.04546 14.57941 36102 ft 392 kts 316°
2026-04-28 18:05 47.09431 14.51935 36126 ft 392 kts 316°
2026-04-28 18:06 47.13602 14.46816 36164 ft 390 kts 316°
2026-04-28 18:06 47.17752 14.41772 36139 ft 389 kts 316°
2026-04-28 18:07 47.21917 14.36715 36122 ft 389 kts 316°
2026-04-28 18:07 47.26075 14.31637 36119 ft 389 kts 316°
2026-04-28 18:08 47.30224 14.26553 36108 ft 388 kts 316°
2026-04-28 18:08 47.33574 14.22420 36071 ft 388 kts 316°
2026-04-28 18:09 47.37663 14.17389 36086 ft 388 kts 316°
2026-04-28 18:09 47.41119 14.13157 36093 ft 389 kts 316°
2026-04-28 18:10 47.44974 14.08402 36080 ft 388 kts 316°
2026-04-28 18:10 47.49120 14.03270 36092 ft 389 kts 316°
2026-04-28 18:11 47.53262 13.98143 36085 ft 389 kts 316°
2026-04-28 18:11 47.57403 13.93013 36091 ft 388 kts 319°
2026-04-28 18:12 47.61608 13.87947 36105 ft 390 kts 315°
2026-04-28 18:12 47.65717 13.82723 36092 ft 389 kts 315°
2026-04-28 18:13 47.69826 13.77492 36086 ft 389 kts 315°
2026-04-28 18:13 47.73963 13.72294 36087 ft 389 kts 315°
2026-04-28 18:14 47.78104 13.67117 36091 ft 389 kts 315°
2026-04-28 18:14 47.82250 13.61922 36090 ft 389 kts 315°
2026-04-28 18:15 47.86384 13.56705 36124 ft 389 kts 315°
2026-04-28 18:15 47.90257 13.51173 36118 ft 383 kts 304°
2026-04-28 18:16 47.92652 13.44188 36110 ft 379 kts 286°
2026-04-28 18:16 47.93850 13.36529 36106 ft 379 kts 284°
2026-04-28 18:17 47.95018 13.28883 36105 ft 380 kts 284°
2026-04-28 18:17 47.96190 13.21194 36094 ft 380 kts 283°
2026-04-28 18:18 47.97354 13.13506 36098 ft 380 kts 283°
2026-04-28 18:18 47.98318 13.07109 36099 ft 380 kts 283°
2026-04-28 18:19 47.99666 12.98099 36103 ft 380 kts 283°
2026-04-28 18:19 48.00818 12.90391 36105 ft 380 kts 283°
2026-04-28 18:20 48.01958 12.82681 36098 ft 381 kts 283°
2026-04-28 18:20 48.03197 12.74270 36098 ft 381 kts 283°
2026-04-28 18:21 48.04339 12.66495 36103 ft 381 kts 283°